This is the latest recevied weather packets stored in our database for station/object SA6BET-2. If no packets are shown the sender has not sent any weather packets the latest 10 day(s).
| Time | Temp. | Humidity | Pressure | Rain* | Wind** | Luminosity | Snow |
|---|---|---|---|---|---|---|---|
| 1787859425 | 25° C | 100% | 1015.8 hPa | - | - | - | - |
| 1787858525 | 25.56° C | 100% | 1015.2 hPa | - | - | - | - |
| 1787857625 | 25.56° C | 100% | 1013.5 hPa | - | - | - | - |
| 1787856725 | 25° C | 100% | 1013.9 hPa | - | - | - | - |
| 1787855825 | 25.56° C | 100% | 1012.9 hPa | - | - | - | - |
| 1787854924 | 26.11° C | 100% | 1012.9 hPa | - | - | - | - |
| 1787854024 | 26.11° C | 100% | 1013.1 hPa | - | - | - | - |
| 1787853124 | 26.67° C | 100% | 1012.8 hPa | - | - | - | - |
| 1787852224 | 26.67° C | 100% | 1013.1 hPa | - | - | - | - |
| 1787851324 | 27.78° C | 100% | 1012.8 hPa | - | - | - | - |
| 1787850423 | 27.22° C | 100% | 1012.6 hPa | - | - | - | - |
| 1787849523 | 27.78° C | 100% | 1012.8 hPa | - | - | - | - |
| 1787848623 | 28.33° C | 100% | 1012.8 hPa | - | - | - | - |
| 1787847722 | 28.89° C | 100% | 1012.8 hPa | - | - | - | - |
| 1787846822 | 28.89° C | 100% | 1012.8 hPa | - | - | - | - |
| 1787845922 | 30.56° C | 100% | 1012.5 hPa | - | - | - | - |
| 1787845029 | 31.11° C | 100% | 1012.5 hPa | - | - | - | - |
| 1787844129 | 31.67° C | 100% | 1012.4 hPa | - | - | - | - |
| 1787843229 | 32.22° C | 100% | 1012.4 hPa | - | - | - | - |
| 1787842329 | 31.67° C | 100% | 1012.7 hPa | - | - | - | - |
| 1787841429 | 31.67° C | 100% | 1012.7 hPa | - | - | - | - |
| 1787840528 | 32.78° C | 100% | 1012.9 hPa | - | - | - | - |
| 1787839628 | 32.78° C | 100% | 1013.2 hPa | - | - | - | - |
| 1787838728 | 33.89° C | 77% | 1013.3 hPa | - | - | - | - |
| 1787837828 | 34.44° C | 70% | 1013.3 hPa | - | - | - | - |
* Rain since midnight (hover to see other rain measurements)
** Current wind speed in m/s (hover to see current wind gust speed)